When you browse on this site, cookies collect data to enhance your experience and personalize the content and advertising you see.
Visit our Privacy Policy to learn more. By continuing to use the site, you agree to this use of cookies and data.
  • In Germany
  • List of Countries
  • For 7 days
  • Water Temperature
  • Satellite Maps
  • Weather Map
  • Weather Widgets
  • user-avatar
    Login

    Hourly Weather Satif

    Today, 23 March, Saturday

    Time Temperature Precipitation Wind Pressure Humidity
    00:00 +5°C° 0 mm 2 mps 672 mmHg 94%
    01:00 +5°C° 0.5 mm 2 mps 672 mmHg 93%
    02:00 +3°C° 0.5 mm 3 mps 672 mmHg 93%
    03:00 +3°C° 0.5 mm 3 mps 672 mmHg 92%
    04:00 +3°C° 0.7 mm 3 mps 672 mmHg 93%
    05:00 +4°C° 0.7 mm 3 mps 672 mmHg 93%
    06:00 +5°C° 0.7 mm 2 mps 673 mmHg 94%
    07:00 +5°C° 0.4 mm 3 mps 673 mmHg 92%
    08:00 +5°C° 0.4 mm 3 mps 673 mmHg 90%
    09:00 +6°C° 0.4 mm 4 mps 674 mmHg 89%
    10:00 +7°C° 0.1 mm 4 mps 674 mmHg 87%
    11:00 +8°C° 0.1 mm 3 mps 674 mmHg 85%
    12:00 +9°C° 0.1 mm 3 mps 674 mmHg 83%
    13:00 +9°C° 0.2 mm 3 mps 674 mmHg 83%
    14:00 +9°C° 0.2 mm 3 mps 674 mmHg 84%
    15:00 +9°C° 0.2 mm 3 mps 674 mmHg 84%
    16:00 +8°C° 0.1 mm 3 mps 674 mmHg 85%
    17:00 +8°C° 0.1 mm 2 mps 674 mmHg 87%
    18:00 +8°C° 0.1 mm 2 mps 674 mmHg 88%
    19:00 +7°C° 0 mm 2 mps 674 mmHg 90%
    20:00 +7°C° 0 mm 1 mps 674 mmHg 92%
    21:00 +7°C° 0 mm 1 mps 674 mmHg 94%
    22:00 +6°C° 0 mm 1 mps 674 mmHg 94%
    23:00 +6°C° 0 mm 1 mps 674 mmHg 95%

    Tomorrow, 24 March, Sunday

    Time Temperature Precipitation Wind Pressure Humidity
    00:00 +5°C° 0 mm 1 mps 674 mmHg 95%
    01:00 +5°C° 0 mm 1 mps 674 mmHg 94%
    02:00 +5°C° 0 mm 1 mps 674 mmHg 93%
    03:00 +5°C° 0 mm 1 mps 674 mmHg 92%
    04:00 +5°C° 0 mm 1 mps 674 mmHg 91%
    05:00 +5°C° 0 mm 1 mps 674 mmHg 91%
    06:00 +5°C° 0 mm 1 mps 674 mmHg 90%
    07:00 +7°C° 0 mm 1 mps 675 mmHg 81%
    08:00 +9°C° 0 mm 1 mps 675 mmHg 73%
    09:00 +11°C° 0 mm 1 mps 676 mmHg 65%
    10:00 +13°C° 0 mm 2 mps 676 mmHg 59%
    11:00 +14°C° 0 mm 2 mps 677 mmHg 53%
    12:00 +15°C° 0 mm 2 mps 677 mmHg 47%
    13:00 +15°C° 0 mm 2 mps 676 mmHg 47%
    14:00 +15°C° 0 mm 2 mps 676 mmHg 46%
    15:00 +15°C° 0 mm 2 mps 676 mmHg 45%
    16:00 +14°C° 0 mm 2 mps 675 mmHg 51%
    17:00 +13°C° 0 mm 2 mps 675 mmHg 57%
    18:00 +12°C° 0 mm 2 mps 675 mmHg 62%
    19:00 +10°C° 0 mm 2 mps 675 mmHg 64%
    20:00 +10°C° 0 mm 2 mps 675 mmHg 66%
    21:00 +9°C° 0 mm 2 mps 675 mmHg 68%
    22:00 +9°C° 0 mm 2 mps 675 mmHg 67%
    23:00 +9°C° 0 mm 2 mps 675 mmHg 67%

    Day after tomorrow, 25 March, Monday

    Time Temperature Precipitation Wind Pressure Humidity
    00:00 +9°C° 0 mm 2 mps 675 mmHg 66%
    01:00 +8°C° 0 mm 2 mps 674 mmHg 68%
    02:00 +8°C° 0 mm 2 mps 674 mmHg 70%
    03:00 +8°C° 0 mm 2 mps 674 mmHg 72%
    04:00 +7°C° 0 mm 2 mps 673 mmHg 75%
    05:00 +7°C° 0 mm 2 mps 673 mmHg 78%
    06:00 +6°C° 0 mm 2 mps 673 mmHg 81%
    07:00 +8°C° 0 mm 2 mps 674 mmHg 73%
    08:00 +10°C° 0 mm 2 mps 674 mmHg 65%
    09:00 +13°C° 0 mm 2 mps 675 mmHg 57%
    10:00 +14°C° 0 mm 2 mps 675 mmHg 53%
    11:00 +14°C° 0 mm 3 mps 675 mmHg 49%
    12:00 +16°C° 0 mm 3 mps 675 mmHg 45%
    13:00 +16°C° 0 mm 3 mps 674 mmHg 45%
    14:00 +16°C° 0 mm 3 mps 674 mmHg 46%
    15:00 +16°C° 0 mm 3 mps 673 mmHg 47%
    16:00 +15°C° 0 mm 2 mps 673 mmHg 53%
    17:00 +14°C° 0 mm 2 mps 672 mmHg 58%
    18:00 +12°C° 0 mm 1 mps 672 mmHg 64%
    19:00 +12°C° 0 mm 1 mps 672 mmHg 66%
    20:00 +12°C° 0 mm 1 mps 672 mmHg 68%
    21:00 +11°C° 0 mm 1 mps 673 mmHg 71%
    22:00 +11°C° 0 mm 1 mps 672 mmHg 70%
    23:00 +11°C° 0 mm 1 mps 672 mmHg 69%

    26 March, Tuesday

    Time Temperature Precipitation Wind Pressure Humidity
    00:00 +11°C° 0 mm 1 mps 672 mmHg 68%
    01:00 +10°C° 0 mm 1 mps 672 mmHg 69%
    02:00 +10°C° 0 mm 1 mps 671 mmHg 70%
    03:00 +9°C° 0 mm 1 mps 671 mmHg 70%
    04:00 +9°C° 0 mm 1 mps 671 mmHg 71%
    05:00 +9°C° 0 mm 1 mps 671 mmHg 72%
    06:00 +8°C° 0 mm 0 mps 671 mmHg 73%
    07:00 +10°C° 0 mm 0 mps 671 mmHg 67%
    08:00 +13°C° 0 mm 1 mps 672 mmHg 62%
    09:00 +14°C° 0 mm 1 mps 673 mmHg 56%
    10:00 +14°C° 0.2 mm 1 mps 673 mmHg 57%
    11:00 +15°C° 0.2 mm 2 mps 673 mmHg 58%
    12:00 +15°C° 0.2 mm 2 mps 673 mmHg 59%
    13:00 +14°C° 0.8 mm 2 mps 673 mmHg 66%
    14:00 +13°C° 0.8 mm 2 mps 672 mmHg 72%
    15:00 +11°C° 0.8 mm 3 mps 672 mmHg 78%
    16:00 +11°C° 0.2 mm 3 mps 672 mmHg 83%
    17:00 +10°C° 0.2 mm 3 mps 672 mmHg 87%
    18:00 +9°C° 0.2 mm 3 mps 672 mmHg 91%
    19:00 +9°C° 1.2 mm 2 mps 672 mmHg 92%
    20:00 +8°C° 1.2 mm 2 mps 672 mmHg 92%
    21:00 +8°C° 1.2 mm 2 mps 673 mmHg 93%
    22:00 +7°C° 0.2 mm 2 mps 673 mmHg 92%
    23:00 +7°C° 0.2 mm 2 mps 673 mmHg 92%

    27 March, Wednesday

    Time Temperature Precipitation Wind Pressure Humidity
    00:00 +7°C° 0.2 mm 2 mps 673 mmHg 91%
    01:00 +6°C° 0 mm 2 mps 673 mmHg 92%
    02:00 +6°C° 0 mm 2 mps 673 mmHg 92%
    03:00 +6°C° 0 mm 2 mps 672 mmHg 93%
    04:00 +4°C° 0 mm 3 mps 673 mmHg 92%
    05:00 +4°C° 0 mm 3 mps 673 mmHg 91%
    06:00 +4°C° 0 mm 3 mps 673 mmHg 89%
    07:00 +5°C° 0 mm 3 mps 673 mmHg 86%
    08:00 +5°C° 0 mm 3 mps 673 mmHg 83%
    09:00 +6°C° 0 mm 2 mps 674 mmHg 79%
    10:00 +8°C° 0 mm 3 mps 674 mmHg 71%
    11:00 +10°C° 0 mm 3 mps 674 mmHg 62%
    12:00 +11°C° 0 mm 3 mps 674 mmHg 53%
    13:00 +12°C° 0 mm 3 mps 674 mmHg 53%
    14:00 +12°C° 0 mm 4 mps 674 mmHg 52%
    15:00 +13°C° 0 mm 4 mps 673 mmHg 51%
    16:00 +11°C° 0 mm 4 mps 673 mmHg 56%
    17:00 +10°C° 0 mm 3 mps 673 mmHg 61%
    18:00 +9°C° 0 mm 3 mps 673 mmHg 66%
    19:00 +9°C° 0 mm 3 mps 673 mmHg 70%
    20:00 +8°C° 0 mm 2 mps 673 mmHg 74%
    21:00 +8°C° 0 mm 2 mps 673 mmHg 78%
    22:00 +7°C° 0 mm 2 mps 673 mmHg 80%
    23:00 +7°C° 0 mm 2 mps 673 mmHg 83%

    28 March, Thursday

    Time Temperature Precipitation Wind Pressure Humidity
    00:00 +7°C° 0 mm 2 mps 672 mmHg 85%
    01:00 +6°C° 0 mm 2 mps 672 mmHg 84%
    02:00 +7°C° 0 mm 1 mps 672 mmHg 84%
    03:00 +7°C° 0 mm 1 mps 672 mmHg 83%
    04:00 +8°C° 0.3 mm 1 mps 672 mmHg 83%
    05:00 +8°C° 0.3 mm 1 mps 672 mmHg 84%
    06:00 +8°C° 0.3 mm 1 mps 672 mmHg 84%
    07:00 +8°C° 1.1 mm 1 mps 672 mmHg 84%
    08:00 +8°C° 1.1 mm 1 mps 673 mmHg 85%
    09:00 +8°C° 1.1 mm 1 mps 673 mmHg 86%
    10:00 +8°C° 1.1 mm 1 mps 673 mmHg 86%
    11:00 +8°C° 1.1 mm 1 mps 673 mmHg 86%
    12:00 +9°C° 1.1 mm 1 mps 673 mmHg 87%
    13:00 +9°C° 0.5 mm 1 mps 673 mmHg 86%
    14:00 +9°C° 0.5 mm 1 mps 673 mmHg 85%
    15:00 +9°C° 0.5 mm 0 mps 672 mmHg 83%
    16:00 +9°C° 0.1 mm 0 mps 673 mmHg 86%
    17:00 +9°C° 0.1 mm 0 mps 673 mmHg 88%
    18:00 +9°C° 0.1 mm 1 mps 673 mmHg 90%
    19:00 +9°C° 0 mm 1 mps 673 mmHg 91%
    20:00 +9°C° 0 mm 1 mps 673 mmHg 91%
    21:00 +9°C° 0 mm 1 mps 674 mmHg 92%
    22:00 +8°C° 0.1 mm 1 mps 674 mmHg 93%
    23:00 +8°C° 0.1 mm 1 mps 673 mmHg 95%
    Show more